GW1159 Weather Reports


time (UTC)temp
C
wind
direction
speed
KPH
gust
KPH
rain 1hr
cm
rain 24hr
cm
rain mn
cm
humidity
%
barometer
mb
20260507201601 14 0 0.0 1.6 0.00 0.00 0.00 84 1014.2
20260507201051 14 0 0.0 0.0 0.00 0.00 0.00 84 1014.1
20260507200552 14 239 0.0 1.6 0.00 0.00 0.00 84 1014.0
20260507200057 14 0 0.0 1.6 0.00 0.00 0.00 83 1014.0
20260507195550 14 0 0.0 0.0 0.00 0.00 0.00 82 1014.0
20260507195047 14 0 0.0 3.2 0.00 0.00 0.00 81 1014.0
20260507194555 15 0 0.0 3.2 0.00 0.00 0.00 81 1013.9
20260507194050 15 239 0.0 3.2 0.00 0.00 0.00 81 1013.9
20260507193549 15 258 1.6 3.2 0.00 0.00 0.00 80 1013.9
20260507193100 15 266 1.6 3.2 0.00 0.00 0.00 80 1013.8
20260507192546 15 0 0.0 3.2 0.00 0.00 0.00 78 1013.8
20260507192050 16 293 0.0 3.2 0.00 0.00 0.00 76 1013.7
20260507191555 16 297 1.6 3.2 0.00 0.00 0.00 74 1013.6
20260507191048 17 0 0.0 3.2 0.00 0.00 0.00 72 1013.5
20260507190548 17 234 0.0 8.0 0.00 0.00 0.00 70 1013.5
20260507190059 18 0 0.0 8.0 0.00 0.00 0.00 68 1013.4
20260507185550 18 79 3.2 8.0 0.00 0.00 0.00 68 1013.4
20260507185051 17 158 0.0 4.8 0.00 0.00 0.00 69 1013.4
20260507184601 17 219 3.2 4.8 0.00 0.00 0.00 70 1013.3
20260507184046 17 219 3.2 4.8 0.00 0.00 0.00 70 1013.2
20260507183547 17 241 0.0 3.2 0.00 0.00 0.00 71 1013.1
20260507183056 18 240 0.0 3.2 0.00 0.00 0.00 70 1013.2
20260507182547 18 245 0.0 4.8 0.00 0.00 0.00 68 1013.1
20260507182047 18 0 0.0 4.8 0.00 0.00 0.00 66 1013.0
20260507181557 19 102 1.6 4.8 0.00 0.00 0.00 64 1012.9
20260507181047 19 73 0.0 4.8 0.00 0.00 0.00 64 1012.9
20260507180547 20 0 1.6 4.8 0.00 0.00 0.00 63 1012.9
20260507180055 20 126 0.0 4.8 0.00 0.00 0.00 63 1012.8
20260507175550 20 0 1.6 8.0 0.00 0.00 0.00 62 1012.7
20260507175050 20 0 1.6 8.0 0.00 0.00 0.00 61 1012.5
20260507174603 20 113 3.2 9.7 0.00 0.00 0.00 61 1012.5
20260507174051 20 84 3.2 9.7 0.00 0.00 0.00 59 1012.4
20260507173550 21 106 4.8 9.7 0.00 0.00 0.00 57 1012.4
20260507173102 21 106 4.8 12.9 0.00 0.00 0.00 55 1012.3
20260507172547 21 94 6.4 12.9 0.00 0.00 0.00 54 1012.3
20260507172046 21 108 3.2 9.7 0.00 0.00 0.00 53 1012.3
20260507171611 21 129 3.2 11.3 0.00 0.00 0.00 54 1012.2
20260507171047 21 100 3.2 12.9 0.00 0.00 0.00 54 1012.2
20260507170547 21 112 6.4 12.9 0.00 0.00 0.00 53 1012.0
20260507170055 21 141 6.4 11.3 0.00 0.00 0.00 53 1012.2
20260507165549 21 131 4.8 12.9 0.00 0.00 0.00 52 1012.2
20260507165049 21 9 6.4 12.9 0.00 0.00 0.00 52 1012.2
20260507164610 21 101 4.8 12.9 0.00 0.00 0.00 52 1012.2
20260507164052 22 127 6.4 12.9 0.00 0.00 0.00 52 1012.1
20260507163547 21 97 4.8 14.5 0.00 0.00 0.00 52 1012.1
20260507163055 21 30 8.0 14.5 0.00 0.00 0.00 51 1012.0
20260507162548 22 114 6.4 14.5 0.00 0.00 0.00 51 1011.9
20260507162051 22 140 3.2 14.5 0.00 0.00 0.00 52 1012.1
20260507161555 22 101 6.4 17.7 0.00 0.00 0.00 51 1012.2
20260507161050 22 109 3.2 17.7 0.00 0.00 0.00 52 1012.2
20260507160550 22 99 6.4 12.9 0.00 0.00 0.00 53 1012.2
20260507160052 21 125 4.8 16.1 0.00 0.00 0.00 52 1012.1
20260507155547 22 70 6.4 16.1 0.00 0.00 0.00 52 1012.2
20260507155048 22 127 4.8 14.5 0.00 0.00 0.00 53 1012.2
20260507154553 22 103 4.8 11.3 0.00 0.00 0.00 52 1012.3
20260507154051 21 75 4.8 11.3 0.00 0.00 0.00 52 1012.4
20260507153548 22 140 3.2 12.9 0.00 0.00 0.00 52 1012.3
20260507153051 21 56 6.4 12.9 0.00 0.00 0.00 52 1012.4
20260507152550 22 150 1.6 9.7 0.00 0.00 0.00 53 1012.5
20260507152051 22 142 4.8 12.9 0.00 0.00 0.00 53 1012.5
20260507151550 22 100 6.4 12.9 0.00 0.00 0.00 52 1012.5
20260507151050 22 88 6.4 12.9 0.00 0.00 0.00 52 1012.6
20260507150550 21 128 4.8 12.9 0.00 0.00 0.00 53 1012.7
20260507150057 21 0 3.2 14.5 0.00 0.00 0.00 52 1012.6
20260507145550 21 96 6.4 14.5 0.00 0.00 0.00 52 1012.6
20260507145049 22 98 8.0 14.5 0.00 0.00 0.00 52 1012.6
20260507144555 22 167 4.8 16.1 0.00 0.00 0.00 49 1012.6
20260507144051 22 101 4.8 16.1 0.00 0.00 0.00 47 1012.7
20260507143552 23 113 3.2 12.9 0.00 0.00 0.00 47 1012.6
20260507143104 23 129 1.6 6.4 0.00 0.00 0.00 44 1012.6
20260507142550 23 158 1.6 11.3 0.00 0.00 0.00 43 1012.7
20260507142048 22 0 3.2 22.5 0.00 0.00 0.00 45 1012.6
20260507141601 22 41 4.8 22.5 0.00 0.00 0.00 45 1012.5
20260507141048 22 1 8.0 16.1 0.00 0.00 0.00 45 1012.5
20260507140548 23 123 3.2 9.7 0.00 0.00 0.00 44 1012.5
20260507140051 23 97 1.6 8.0 0.00 0.00 0.00 43 1012.6
20260507135548 23 235 3.2 9.7 0.00 0.00 0.00 44 1012.7
20260507135050 23 199 4.8 11.3 0.00 0.00 0.00 43 1012.7
20260507134556 23 196 1.6 11.3 0.00 0.00 0.00 44 1012.7
20260507134049 23 214 3.2 11.3 0.00 0.00 0.00 44 1012.7
20260507133549 22 131 4.8 17.7 0.00 0.00 0.00 44 1012.7
20260507133057 22 136 6.4 17.7 0.00 0.00 0.00 44 1012.6
20260507132546 22 101 6.4 17.7 0.00 0.00 0.00 44 1012.6
20260507132050 23 122 3.2 12.9 0.00 0.00 0.00 43 1012.8
20260507131604 23 241 3.2 9.7 0.00 0.00 0.00 42 1012.8
20260507131051 23 235 3.2 9.7 0.00 0.00 0.00 44 1012.8
20260507130550 22 356 1.6 8.0 0.00 0.00 0.00 43 1012.8
20260507130100 23 131 4.8 8.0 0.00 0.00 0.00 41 1012.8
20260507125548 23 242 0.0 4.8 0.00 0.05 0.00 41 1012.8
20260507125049 23 34 1.6 6.4 0.00 0.05 0.00 40 1012.9
20260507124555 23 210 0.0 8.0 0.00 0.05 0.00 43 1012.9
20260507124051 23 0 1.6 8.0 0.00 0.05 0.00 42 1013.1
20260507123548 22 134 3.2 12.9 0.00 0.05 0.00 42 1013.0
20260507123051 22 83 3.2 12.9 0.00 0.05 0.00 45 1012.9
20260507122551 22 32 1.6 8.0 0.00 0.05 0.00 45 1013.0
20260507122048 22 44 3.2 6.4 0.00 0.05 0.00 44 1013.0
20260507121553 22 307 0.0 11.3 0.00 0.05 0.00 41 1013.1
20260507121052 22 335 1.6 11.3 0.00 0.05 0.00 44 1013.1
20260507120546 22 338 3.2 11.3 0.00 0.05 0.00 41 1013.1
20260507120057 22 94 3.2 8.0 0.00 0.05 0.00 43 1013.1
20260507115550 22 30 3.2 8.0 0.00 0.08 0.00 43 1013.1
20260507115048 22 44 3.2 9.7 0.00 0.08 0.00 45 1013.3
20260507114549 22 56 3.2 11.3 0.00 0.08 0.00 46 1013.2
20260507114047 22 343 4.8 11.3 0.00 0.08 0.00 43 1013.4
20260507113550 22 322 3.2 9.7 0.00 0.08 0.00 44 1013.4
20260507113053 22 28 4.8 8.0 0.00 0.08 0.00 43 1013.4
20260507112550 22 317 1.6 6.4 0.00 0.08 0.00 40 1013.4
20260507112047 22 0 0.0 6.4 0.00 0.08 0.00 41 1013.4
20260507111553 22 0 0.0 6.4 0.00 0.08 0.00 36 1013.4
20260507111050 22 70 3.2 8.0 0.00 0.08 0.00 41 1013.4
20260507110550 21 61 3.2 8.0 0.00 0.08 0.00 43 1013.6
20260507110105 21 95 1.6 11.3 0.00 0.08 0.00 42 1013.6
20260507105550 21 32 3.2 11.3 0.00 0.08 0.00 42 1013.6
20260507105051 21 103 3.2 12.9 0.00 0.08 0.00 42 1013.7
20260507104551 21 49 8.0 14.5 0.00 0.08 0.00 41 1013.8
20260507104050 21 100 4.8 14.5 0.00 0.08 0.00 43 1013.7
20260507103551 22 317 3.2 8.0 0.00 0.08 0.00 44 1013.6
20260507103054 22 333 0.0 6.4 0.00 0.08 0.00 39 1013.8
20260507102548 22 274 0.0 6.4 0.00 0.08 0.00 44 1013.9
20260507102048 21 297 1.6 6.4 0.00 0.08 0.00 45 1013.8
20260507101550 21 317 0.0 9.7 0.00 0.08 0.00 42 1013.9
20260507101050 21 19 3.2 9.7 0.00 0.08 0.00 44 1013.9
20260507100549 21 0 1.6 14.5 0.00 0.08 0.00 43 1013.9
20260507100052 21 269 1.6 14.5 0.00 0.08 0.00 44 1014.0
20260507095552 21 106 4.8 14.5 0.00 0.08 0.00 41 1014.0
20260507095051 21 201 0.0 8.0 0.00 0.08 0.00 44 1014.0
20260507094607 20 44 3.2 9.7 0.00 0.08 0.00 47 1014.0
20260507094051 21 32 3.2 9.7 0.00 0.08 0.00 46 1014.0
20260507093551 20 71 3.2 9.7 0.00 0.08 0.00 49 1014.1
20260507093058 20 50 3.2 8.0 0.00 0.08 0.00 49 1014.1
20260507092554 21 57 3.2 8.0 0.00 0.08 0.00 48 1014.0
20260507092050 20 58 1.6 6.4 0.00 0.08 0.00 52 1014.1
20260507091615 21 77 1.6 6.4 0.00 0.08 0.00 51 1014.0
20260507091050 20 4 1.6 6.4 0.00 0.08 0.00 53 1014.0
20260507090548 20 103 1.6 6.4 0.00 0.08 0.00 53 1014.0
20260507085553 20 211 0.0 8.0 0.00 0.33 0.00 52 1014.0
20260507085053 19 348 3.2 11.3 0.00 0.33 0.00 54 1014.0
20260507084555 20 39 1.6 11.3 0.00 0.33 0.00 53 1014.0
20260507084050 20 136 3.2 11.3 0.00 0.33 0.00 53 1013.9
20260507083551 20 92 3.2 8.0 0.00 0.33 0.00 52 1013.9
20260507083139 20 110 0.0 6.4 0.00 0.33 0.00 53 1014.0
20260507082551 19 89 3.2 9.7 0.00 0.33 0.00 54 1014.0
20260507082054 19 93 3.2 9.7 0.00 0.33 0.00 52 1013.8
20260507081556 19 80 3.2 9.7 0.00 0.33 0.00 51 1013.8
20260507081050 19 162 1.6 6.4 0.00 0.33 0.00 54 1013.8
20260507080550 19 219 3.2 6.4 0.00 0.33 0.00 56 1013.7
20260507080055 19 88 0.0 4.8 0.00 0.33 0.00 57 1013.8
20260507075548 19 233 1.6 4.8 0.00 0.46 0.00 57 1013.7
20260507075047 18 163 0.0 4.8 0.00 0.46 0.00 60 1013.8
20260507074553 18 161 1.6 6.4 0.00 0.46 0.00 60 1013.7
20260507074047 18 0 1.6 6.4 0.00 0.46 0.00 63 1013.8
20260507073547 18 162 1.6 6.4 0.00 0.46 0.00 61 1013.7
20260507073054 18 139 1.6 6.4 0.00 0.46 0.00 64 1013.8
20260507072551 17 124 1.6 8.0 0.00 0.46 0.00 63 1013.6
20260507072050 17 130 3.2 8.0 0.00 0.46 0.00 65 1013.7
20260507071557 17 115 0.0 9.7 0.00 0.46 0.00 63 1013.7
20260507071050 17 97 3.2 11.3 0.00 0.46 0.00 65 1013.7
20260507070551 17 223 1.6 11.3 0.00 0.46 0.00 66 1013.6
20260507065548 16 160 1.6 16.1 0.00 0.79 0.00 67 1013.5
20260507065050 16 103 3.2 16.1 0.00 0.79 0.00 67 1013.5
20260507064556 16 135 4.8 16.1 0.00 0.79 0.00 67 1013.5
20260507064049 16 180 4.8 12.9 0.00 0.79 0.00 68 1013.5
20260507063547 15 119 4.8 12.9 0.00 0.79 0.00 69 1013.6
20260507063057 15 104 3.2 12.9 0.00 0.79 0.00 69 1013.5
20260507062548 15 115 3.2 12.9 0.00 0.79 0.00 71 1013.4
20260507062048 15 219 3.2 11.3 0.00 0.79 0.00 71 1013.4
20260507061555 15 117 4.8 11.3 0.00 0.79 0.00 72 1013.5
20260507061047 15 109 1.6 11.3 0.00 0.79 0.00 72 1013.5
20260507060551 14 136 4.8 11.3 0.00 0.79 0.00 73 1013.3
20260507060104 14 84 4.8 9.7 0.00 0.79 0.00 73 1013.2
20260507055553 14 83 3.2 8.0 0.00 1.17 0.00 73 1013.2
20260507055050 14 117 1.6 8.0 0.00 1.17 0.00 75 1013.3
20260507054559 14 104 3.2 8.0 0.00 1.17 0.00 75 1013.2
20260507054051 14 72 3.2 6.4 0.00 1.17 0.00 75 1013.1
20260507053551 13 0 0.0 6.4 0.00 1.17 0.00 78 1013.0
20260507053056 13 0 0.0 6.4 0.00 1.17 0.00 82 1013.0
20260507052550 12 153 1.6 4.8 0.00 1.17 0.00 83 1013.0
20260507052050 12 95 1.6 4.8 0.00 1.17 0.00 84 1013.0
20260507051553 11 0 0.0 4.8 0.00 1.17 0.00 85 1013.0
20260507051051 11 17 0.0 4.8 0.00 1.17 0.00 86 1012.9
20260507050548 11 103 0.0 3.2 0.00 1.17 0.00 87 1012.9
20260507050100 10 0 0.0 3.2 0.00 1.17 0.00 87 1012.8
20260507045553 10 0 0.0 1.6 0.00 1.75 0.00 87 1012.7
20260507045048 10 0 0.0 1.6 0.00 1.75 0.00 86 1012.8
20260507044552 10 0 0.0 0.0 0.00 1.75 0.00 87 1012.8
20260507044047 10 0 0.0 0.0 0.00 1.75 0.00 88 1012.6
20260507043550 9 0 0.0 1.6 0.00 1.75 0.00 90 1012.5
20260507043058 8 0 0.0 1.6 0.00 1.75 0.00 91 1012.6
20260507042551 8 0 0.0 1.6 0.00 1.75 0.00 91 1012.5
20260507042053 8 0 0.0 1.6 0.00 1.75 0.00 91 1012.4
20260507041556 8 0 0.0 1.6 0.00 1.75 0.00 91 1012.4
20260507041052 8 0 0.0 0.0 0.00 1.75 0.00 92 1012.4
20260507040551 8 0 0.0 0.0 0.00 1.75 0.00 91 1012.3
20260507040101 8 0 0.0 0.0 0.00 1.75 0.00 91 1012.3
20260507035550 8 0 0.0 0.0 0.00 1.98 0.00 91 1012.3
20260507035050 9 0 0.0 0.0 0.00 1.98 0.00 90 1012.2
20260507034559 9 0 0.0 0.0 0.00 1.98 0.00 90 1012.2
20260507034049 9 0 0.0 1.6 0.00 1.98 0.00 90 1012.1
20260507033552 9 0 0.0 1.6 0.00 1.98 0.00 89 1012.0
20260507033054 10 0 0.0 1.6 0.00 1.98 0.00 90 1012.1
20260507032551 9 259 1.6 1.6 0.00 1.98 0.00 91 1012.1
20260507032052 9 0 0.0 1.6 0.00 1.98 0.00 91 1012.1
20260507031553 9 0 0.0 1.6 0.00 1.98 0.00 91 1012.1
20260507031052 9 0 0.0 1.6 0.00 1.98 0.00 91 1011.9
20260507030550 9 0 0.0 1.6 0.00 1.98 0.00 91 1011.9
20260507030056 9 0 0.0 1.6 0.00 1.98 0.00 91 1012.0
20260507025552 10 256 0.0 1.6 0.00 2.34 0.00 90 1011.9
20260507025050 10 0 0.0 0.0 0.00 2.34 0.00 90 1011.9
20260507024558 10 0 0.0 0.0 0.00 2.34 0.00 90 1011.9
20260507024048 10 0 0.0 1.6 0.00 2.34 0.00 90 1011.8
20260507023548 10 0 0.0 1.6 0.00 2.34 0.00 89 1011.8
20260507023054 10 0 0.0 1.6 0.00 2.34 0.00 89 1011.6
20260507022548 10 283 0.0 1.6 0.00 2.34 0.00 89 1011.8
20260507022051 11 0 0.0 0.0 0.00 2.34 0.00 88 1011.7
20260507021557 11 0 0.0 1.6 0.00 2.34 0.00 88 1011.7
20260507021050 11 0 0.0 1.6 0.00 2.34 0.00 87 1011.7
20260507020554 11 217 0.0 1.6 0.00 2.34 0.00 87 1011.7
20260507020057 11 0 0.0 1.6 0.00 2.34 0.00 86 1011.7
20260507015550 11 0 0.0 3.2 0.00 2.72 0.00 85 1011.7
20260507015048 12 0 0.0 3.2 0.00 2.72 0.00 83 1011.7
20260507014552 12 0 0.0 6.4 0.00 2.72 0.00 82 1011.8
20260507014050 12 0 0.0 6.4 0.00 2.72 0.00 81 1011.7
20260507013551 12 203 1.6 6.4 0.00 2.72 0.00 84 1011.5
20260507013050 12 0 0.0 3.2 0.00 2.72 0.00 85 1011.5
20260507012551 11 6 1.6 3.2 0.00 2.72 0.00 87 1011.6
20260507012048 11 255 0.0 1.6 0.00 2.72 0.00 88 1011.5
20260507011552 11 255 0.0 1.6 0.00 2.72 0.00 89 1011.4
20260507011047 11 0 0.0 1.6 0.00 2.72 0.00 89 1011.4
20260507010551 11 0 0.0 1.6 0.00 2.72 0.00 90 1011.4
20260507010110 10 0 0.0 1.6 0.00 2.72 0.00 90 1011.4
20260507005551 10 0 0.0 0.0 0.00 3.17 0.00 89 1011.4
20260507005052 11 0 0.0 1.6 0.00 3.17 0.00 88 1011.4
20260507004556 11 0 0.0 1.6 0.00 3.17 0.00 89 1011.5
20260507004051 10 0 0.0 1.6 0.00 3.17 0.00 90 1011.5
20260507003552 11 0 0.0 1.6 0.00 3.17 0.00 89 1011.4
20260507003057 11 0 0.0 1.6 0.00 3.17 0.00 89 1011.5
20260507002548 11 0 0.0 1.6 0.00 3.17 0.00 90 1011.5
20260507002050 11 0 0.0 1.6 0.00 3.17 0.00 89 1011.5
20260507001557 11 0 0.0 0.0 0.00 3.17 0.00 89 1011.5
20260507001050 11 0 0.0 0.0 0.00 3.17 0.00 88 1011.5
20260507000555 11 0 0.0 0.0 0.00 3.17 0.00 87 1011.6
20260507000056 11 0 0.0 0.0 0.00 3.17 0.00 87 1011.7
20260506235551 11 0 0.0 1.6 0.00 3.25 0.00 87 1011.6
20260506235050 11 0 0.0 1.6 0.00 3.25 0.00 87 1011.6
20260506234602 11 0 0.0 1.6 0.00 3.25 0.00 86 1011.5
20260506234050 11 0 0.0 1.6 0.00 3.25 0.00 85 1011.6
20260506233551 12 0 0.0 1.6 0.00 3.25 0.00 85 1011.6
20260506233100 12 0 0.0 1.6 0.00 3.25 0.00 84 1011.6
20260506232550 12 202 0.0 3.2 0.00 3.25 0.00 85 1011.6
20260506232048 12 231 0.0 3.2 0.00 3.25 0.00 85 1011.7
20260506231557 12 0 1.6 4.8 0.00 3.25 0.00 85 1011.7
20260506231048 12 0 1.6 4.8 0.00 3.25 0.00 85 1011.7
20260506230550 12 0 0.0 1.6 0.00 3.25 0.00 84 1011.8
20260506230057 12 243 0.0 1.6 0.00 3.25 0.00 84 1011.7
20260506225551 12 0 0.0 1.6 0.00 3.25 0.00 84 1011.8
20260506225053 12 0 0.0 1.6 0.00 3.25 0.00 83 1011.8
20260506224554 12 245 0.0 3.2 0.00 3.25 0.00 83 1011.8
20260506224050 12 0 0.0 4.8 0.00 3.25 0.00 83 1011.7
20260506223550 12 0 0.0 4.8 0.00 3.25 0.00 83 1011.8
20260506223059 12 273 0.0 3.2 0.00 3.25 0.00 83 1011.6
20260506222550 12 0 0.0 8.0 0.00 3.25 0.00 83 1011.6
20260506222051 12 318 1.6 8.0 0.00 3.25 0.00 83 1011.5
20260506221551 12 340 1.6 4.8 0.00 3.25 0.00 82 1011.5
20260506221050 12 0 0.0 1.6 0.00 3.25 0.00 81 1011.5
20260506220550 12 0 0.0 1.6 0.00 3.25 0.00 81 1011.4
20260506220054 12 0 0.0 3.2 0.00 3.25 0.00 82 1011.3
20260506215549 12 0 0.0 3.2 0.00 3.25 3.25 82 1011.4
20260506215048 13 0 0.0 3.2 0.00 3.25 3.25 81 1011.3
20260506214556 13 0 0.0 3.2 0.00 3.25 3.25 80 1011.3
20260506214051 12 0 0.0 3.2 0.00 3.25 3.25 80 1011.2
20260506213551 13 0 0.0 3.2 0.00 3.25 3.25 81 1011.2
20260506213056 13 106 0.0 1.6 0.00 3.25 3.25 80 1011.3
20260506212551 13 134 0.0 1.6 0.00 3.25 3.25 80 1011.2
20260506212051 13 0 0.0 1.6 0.00 3.25 3.25 79 1011.2
20260506211554 13 0 0.0 1.6 0.00 3.25 3.25 79 1011.2
20260506211050 13 0 0.0 1.6 0.00 3.25 3.25 78 1011.2
20260506210554 13 0 0.0 3.2 0.00 3.25 3.25 76 1011.1
20260506210053 14 0 0.0 3.2 0.00 3.25 3.25 75 1011.1
20260506205550 14 0 0.0 1.6 0.00 3.25 3.25 72 1011.1
20260506205051 14 0 0.0 1.6 0.00 3.25 3.25 73 1011.0
20260506204555 14 167 0.0 1.6 0.00 3.25 3.25 73 1010.9
20260506204055 14 0 0.0 3.2 0.00 3.25 3.25 73 1011.0
20260506203551 14 155 0.0 3.2 0.00 3.25 3.25 73 1011.1
20260506203053 14 158 0.0 1.6 0.00 3.25 3.25 74 1011.0
20260506202553 14 0 0.0 1.6 0.00 3.25 3.25 74 1011.0
20260506202051 13 137 0.0 1.6 0.00 3.25 3.25 75 1010.9